Location: Coupvray
(48.8929°N, 2.7967°E)
Time: 12:59:00
(UTC+00:00)

Altair 2 - Pass Details

Date: 24 January 2021
Orbit: 837 x 949 km, 90.2° (Epoch: 28 February)

Event Time Altitude Azimuth Distance (km) Brightness Sun altitude
Rises 19:27:00 0° 222° (SW) 3,384 11.3 -28.2°
Reaches altitude 10° 19:30:05 10° 240° (WSW) 2,450 10.8 -28.7°
Maximum altitude 19:33:54 19° 284° (WNW) 1,895 10.2 -29.4°
Drops below altitude 10° 19:37:46 10° 329° (NNW) 2,470 10.5 -30.0°
Sets 19:40:55 0° 347° (NNW) 3,421 11.1 -30.5°
